カタログに戻る

STARLINK-5683

運用中通信VLEO
NORAD 55452·PAYLOAD·🇺🇸 United States

打ち上げ Feb 2, 2023 から Cape Canaveral Space Force Station

Loading…

次のパス (今後24時間)

TLE

最新Source: CelesTrak SupGP

元期: Sep 15, 2026, 02:33 UTC

1 55452C 23015D   26258.10673611  .00027706  00000+0  10034-2 0  2589
2 55452  43.0039 339.4554 0002159 273.9015 153.8292 15.27566391    15

AllMySatでSTARLINK-5683をリアルタイム追跡

Download on the App Store